Wetbulb
76.68 76.73 77.34 74.24 63.46 59.75 57.27 59.97 64.31 62.52 63.60 66.93 67.59 66.49 64.43 64.91 63.19 58.82 71.84 74.41 74.29 74.83 75.90 76.33 76.70 76.64 76.78 76.85 76.61 77.03 76.92 77.11 77.63 77.74 77.89 77.49 77.71 77.95 77.68 77.58 77.39 77.31 77.01 76.88 76.65 76.40 76.38 76.38 75.85
77.63 77.31 76.86 71.96 60.59 53.27 56.80 62.34 60.62 64.24 67.10 68.50 67.94 67.32 65.28 64.82 69.08 69.39 70.47 73.87 74.10 74.09 74.88 75.76 76.48 76.91 76.93 76.95 76.92 76.69 76.59 76.60 76.84 77.27 77.49 77.14 77.63 77.64 77.20 77.09 77.15 77.09 76.76 76.63 76.30 76.46 76.32 76.21 75.93
78.18 77.62 71.41 67.64 59.06 54.74 56.95 61.79 64.23 66.07 67.40 66.98 66.43 68.66 67.91 66.35 70.14 71.11 74.10 73.68 73.65 74.45 75.68 76.39 76.85 77.06 77.30 77.00 77.25 77.13 76.91 76.98 76.81 76.90 76.87 77.15 77.67 77.34 76.79 76.99 76.93 76.82 76.46 76.21 76.38 76.30 76.18 76.27 76.04
76.37 73.85 71.58 59.96 56.90 61.07 61.70 63.79 65.64 65.63 67.29 68.18 68.39 65.72 69.81 72.30 71.42 73.87 75.69 74.66 74.44 75.59 76.06 76.46 77.12 77.14 77.14 77.21 77.37 77.49 77.54 77.16 76.74 76.82 77.40 77.48 77.18 76.63 76.77 76.74 76.57 76.44 76.30 76.35 76.24 76.41 76.46 76.57 76.18
75.23 70.91 61.89 57.31 57.91 61.76 64.53 65.93 66.18 64.43 65.93 66.83 68.26 65.99 67.22 72.09 74.36 74.89 75.20 74.63 74.40 75.21 76.41 76.83 77.60 77.57 77.31 77.44 77.94 77.65 77.43 76.95 76.54 77.04 77.34 77.07 77.02 76.83 76.77 76.38 76.15 76.15 76.27 76.60 76.57 76.71 76.13 76.27 75.93
68.97 66.84 57.14 55.00 56.88 61.15 64.96 66.09 65.51 65.99 66.55 66.64 67.13 67.02 68.65 73.74 73.86 74.89 75.58 75.62 74.98 76.02 76.89 77.21 77.82 77.71 77.74 77.59 77.38 77.20 76.96 76.90 77.00 77.09 76.99 76.96 76.99 76.63 76.32 75.84 75.95 76.01 76.37 76.54 77.05 76.71 75.88 75.93 75.32
66.95 62.62 57.40 57.23 57.29 58.90 62.08 65.95 64.51 65.06 65.20 66.33 69.48 66.41 69.48 72.12 74.61 75.31 76.03 75.97 75.24 76.18 76.68 77.11 77.63 77.90 77.81 77.63 77.20 77.04 77.06 77.06 77.06 76.85 76.76 76.63 76.60 76.21 75.62 75.65 75.76 75.65 76.29 76.48 76.29 76.18 75.29 75.63 75.07
68.83 63.33 57.57 59.00 57.70 57.36 62.78 64.72 65.73 65.34 65.23 69.51 70.70 66.17 66.83 72.32 74.43 74.83 74.98 75.17 74.86 76.40 75.98 76.51 77.40 77.29 78.26 78.28 77.21 76.91 76.88 76.63 76.77 76.63 76.93 76.93 77.10 76.85 76.01 75.98 76.24 75.71 75.68 75.73 75.67 75.45 74.98 75.30 74.99
69.49 60.22 58.41 57.58 58.41 59.42 63.49 62.82 65.78 68.36 66.38 67.26 68.52 69.82 71.63 73.46 74.27 73.59 73.31 73.88 73.95 75.26 76.04 76.60 75.88 76.09 77.21 77.44 77.46 77.10 77.05 76.91 76.66 76.91 77.32 77.13 76.99 77.08 77.85 76.78 75.60 75.94 75.82 76.18 75.39 75.59 75.75 75.98 75.91
65.65 58.04 59.60 61.79 62.79 62.00 62.86 62.86 65.02 64.96 65.21 66.01 67.06 70.86 72.37 72.96 72.74 71.96 71.78 72.62 73.26 74.06 74.77 75.47 75.59 76.47 76.70 75.65 77.48 77.14 76.82 76.58 76.67 77.10 78.04 76.59 77.91 77.78 76.17 76.81 75.75 76.30 75.57 76.36 76.17 76.42 76.73 76.57 76.47
64.64 61.55 62.45 62.32 63.80 64.87 63.35 63.17 65.37 64.61 63.05 65.96 66.11 69.11 70.69 71.45 71.97 71.68 72.01 72.82 73.43 75.02 75.40 75.88 77.15 76.74 76.37 77.96 76.52 76.65 76.69 76.64 76.80 78.20 77.96 77.64 77.49 76.93 76.46 77.82 77.12 76.99 76.04 76.43 76.98 76.55 76.93 76.12 76.26
61.48 64.09 63.40 63.77 63.43 64.28 62.96 65.35 62.75 63.64 64.74 67.42 69.03 70.61 70.64 70.67 71.14 71.41 71.78 72.78 73.89 74.58 74.97 75.31 76.47 77.40 77.37 76.79 76.07 76.20 75.71 75.82 75.74 76.53 78.10 77.43 76.50 76.32 76.75 76.31 77.01 77.97 76.97 77.72 78.31 76.27 77.33 75.87 77.55
61.22 62.82 62.41 62.43 63.60 63.87 64.93 63.99 63.16 62.66 66.14 68.21 69.92 70.46 70.28 70.69 71.13 72.02 72.53 73.32 74.23 74.01 74.73 75.40 76.47 77.75 77.64 78.31 76.54 76.21 75.79 75.45 75.76 76.16 77.52 76.75 76.01 76.39 76.53 77.10 76.58 77.95 77.47 75.51 76.50 76.28 77.76 76.03 75.82
61.88 62.20 61.08 61.30 62.49 63.67 63.11 63.92 64.23 64.33 67.42 67.92 69.42 69.60 70.20 70.33 70.82 71.68 72.06 72.83 73.56 74.47 74.94 75.90 76.54 77.51 77.85 78.42 78.87 76.86 76.69 77.06 75.91 75.91 76.77 77.81 76.71 77.08 76.11 76.98 77.02 76.20 77.62 76.43 76.63 77.08 75.60 76.58 76.43
61.53 58.58 61.53 61.68 62.37 62.59 64.19 61.72 62.20 65.97 68.10 67.41 68.47 69.36 69.60 70.12 71.03 71.39 72.19 72.69 73.83 74.48 75.43 75.80 76.37 77.16 77.85 77.92 78.00 77.27 76.58 76.26 76.41 75.61 78.06 77.74 79.01 77.83 78.18 77.84 76.36 77.09 78.07 77.66 77.32 76.91 76.61 75.33 75.26
58.81 60.02 57.04 60.95 62.00 63.09 63.07 58.31 63.52 67.23 66.84 67.23 67.64 68.75 69.18 70.03 70.81 72.11 72.73 73.36 74.34 74.64 74.97 76.00 75.98 76.56 77.44 78.52 78.29 77.33 76.84 76.34 78.06 76.40 76.73 78.17 78.65 78.77 78.15 76.64 75.68 76.94 77.74 77.44 77.17 75.24 74.27 72.51 71.52
57.91 55.00 56.48 58.38 62.50 63.43 62.61 58.37 64.15 67.36 66.25 65.63 67.70 67.99 68.93 69.70 70.97 72.19 72.93 73.71 74.24 74.97 75.39 75.69 76.38 76.19 77.19 79.07 78.30 78.37 80.15 78.35 77.36 78.31 77.23 78.23 78.28 78.52 77.97 76.50 77.60 78.21 77.22 77.02 75.72 73.59 73.47 71.37 69.50
55.05 55.47 57.18 58.84 60.62 62.91 61.09 61.04 64.73 66.96 66.13 64.88 66.69 67.52 68.21 68.85 70.00 72.19 73.23 73.81 74.35 75.02 75.80 76.40 76.14 77.71 79.37 78.94 80.29 78.15 77.97 77.56 77.39 77.15 77.61 79.03 77.89 78.96 77.76 76.92 77.06 77.01 75.98 75.66 75.64 74.08 72.91 70.79 69.48
58.42 57.88 56.78 59.19 61.14 61.12 61.04 61.50 63.68 66.60 66.66 65.44 65.35 66.78 67.36 68.23 71.06 72.30 73.23 73.56 73.90 74.88 75.88 76.22 77.34 80.07 77.99 76.27 76.01 76.03 75.38 76.06 76.07 77.01 78.13 79.06 78.46 77.84 78.09 76.22 76.71 76.68 75.44 75.14 74.28 72.36 71.83 68.83 71.74
57.31 57.21 57.33 59.32 60.98 60.86 60.71 60.63 64.05 66.12 66.48 67.07 66.41 66.36 67.23 68.19 69.44 71.28 72.89 73.32 73.93 74.72 76.07 77.84 78.38 80.12 79.03 77.63 77.71 77.73 77.19 75.07 76.16 77.58 79.59 78.42 77.69 78.33 77.66 77.71 76.87 77.33 74.25 74.92 72.86 71.54 69.01 68.94 71.11
56.14 56.35 57.36 57.11 60.90 62.32 60.85 59.31 61.38 64.44 67.08 67.56 67.72 67.82 68.07 67.93 68.16 70.00 71.93 72.97 73.97 74.37 75.70 78.29 79.85 80.55 80.33 80.42 78.97 78.11 77.87 76.64 75.63 74.62 75.81 77.49 77.38 77.68 77.87 77.76 76.36 76.51 74.25 69.72 72.33 71.74 70.98 67.95 69.73
53.75 58.27 58.14 57.78 57.24 55.80 60.70 54.05 60.15 62.33 63.17 65.93 67.38 67.98 67.79 68.40 69.00 69.68 71.36 72.77 73.56 74.42 76.19 79.01 79.90 80.68 80.38 81.24 78.62 79.20 75.96 73.85 73.61 74.64 75.20 75.32 75.95 75.97 76.82 75.74 75.66 75.18 72.18 74.93 72.11 71.36 71.36 70.66 68.39
54.93 58.94 58.42 58.24 57.20 57.59 57.01 54.95 57.46 61.73 60.75 62.96 66.20 67.84 68.44 68.54 69.17 69.21 70.61 72.25 73.73 74.75 75.40 77.04 80.14 81.09 81.13 80.90 79.99 77.56 77.27 74.75 74.74 74.49 77.76 77.30 78.22 75.96 74.75 76.00 75.10 73.60 70.24 72.96 72.77 71.68 71.90 71.39 68.69
57.12 57.51 57.99 57.81 56.73 51.72 57.15 54.88 56.63 57.80 61.43 62.93 64.98 67.30 69.09 68.93 69.46 70.56 71.18 72.15 72.99 74.27 75.08 76.05 79.51 80.87 81.54 81.09 80.61 80.47 80.31 77.29 75.28 75.86 74.22 73.40 74.21 74.36 75.69 75.37 74.79 73.79 72.51 72.90 72.49 72.21 71.56 71.12 71.05
55.17 54.60 50.76 50.02 50.39 49.86 58.10 55.50 57.82 61.37 62.93 63.74 63.83 65.25 68.30 70.16 69.04 69.59 70.67 71.10 72.57 73.87 75.23 76.13 79.04 80.42 81.38 80.43 80.18 79.71 80.16 79.97 78.78 77.71 74.47 75.71 72.99 73.26 76.60 76.24 74.99 72.96 73.95 73.79 73.16 72.55 71.77 70.91 69.94
53.14 53.65 50.89 46.78 48.22 50.86 56.58 53.85 57.48 63.43 63.49 64.67 64.98 64.67 66.75 69.56 70.16 69.16 70.06 70.72 71.96 73.51 76.18 76.89 78.32 79.90 80.77 80.34 80.81 81.01 80.98 77.34 76.88 77.82 75.51 72.97 72.48 73.63 78.31 75.69 74.74 73.35 73.78 73.40 73.10 70.84 70.26 71.90 70.14
52.77 52.01 56.33 52.98 54.29 51.59 53.79 56.97 59.79 62.37 62.63 63.14 63.37 63.36 63.87 68.27 69.85 69.48 69.98 70.24 71.09 73.56 75.93 77.08 78.20 79.74 80.31 80.17 81.12 80.90 80.50 79.99 77.34 79.10 79.15 75.77 77.18 73.57 74.86 75.39 74.05 73.82 73.06 73.51 72.79 70.26 71.11 71.17 71.18
52.93 56.02 52.04 53.94 49.18 48.32 51.74 53.55 54.56 59.58 60.26 61.61 62.14 62.44 63.95 65.92 69.02 70.04 69.88 70.61 72.15 72.57 75.20 77.21 78.40 79.71 80.26 80.27 80.59 79.91 80.20 80.61 80.32 80.39 79.73 78.33 78.07 76.24 76.58 74.50 73.75 73.44 73.60 72.97 72.62 71.86 72.49 71.19 70.06
50.97 51.82 54.04 54.53 53.65 49.47 48.66 52.59 59.40 60.44 61.64 61.33 62.12 63.10 63.69 64.96 67.99 70.07 70.38 71.06 72.46 72.64 73.45 75.48 77.49 78.85 79.59 79.73 80.17 79.88 79.63 79.09 80.05 79.32 79.38 78.80 78.56 77.54 76.02 75.11 74.88 73.36 72.51 72.30 73.02 72.17 71.47 70.87 71.51
53.56 51.94 53.28 53.18 51.89 53.13 52.36 52.47 60.47 60.82 61.52 61.82 62.50 63.19 64.18 64.97 66.26 68.80 70.57 71.25 71.64 73.56 72.98 74.11 75.67 76.32 78.40 79.09 80.25 79.81 80.11 79.36 78.83 79.10 79.24 79.25 77.74 77.70 76.37 75.54 74.54 72.51 70.79 69.55 69.50 70.87 69.89 70.57 70.00
MSLP
1008.47 1008.31 1007.66 1007.54 1006.81 1006.02 1004.05 1003.08 1002.99 1003.63 1004.22 1004.71 1005.41 1006.54 1006.84 1007.92 1006.94 1009.96 1011.94 1012.07 1012.53 1012.90 1013.75 1014.10 1014.58 1014.74 1015.01 1015.19 1015.29 1015.52 1015.62 1015.88 1016.08 1016.25 1016.38 1016.46 1016.63 1016.79 1016.96 1016.97 1017.08 1017.03 1017.01 1017.04 1017.02 1017.04 1016.99 1017.02 1017.08
1006.84 1006.83 1005.59 1004.24 1003.45 1003.79 1002.77 1002.73 1002.97 1003.34 1003.90 1004.52 1004.97 1005.44 1006.29 1007.10 1007.97 1009.96 1011.30 1012.01 1012.21 1012.58 1013.16 1013.93 1014.92 1015.15 1015.32 1015.44 1015.53 1015.74 1015.85 1016.11 1016.40 1016.57 1016.62 1016.68 1016.88 1017.05 1017.11 1017.21 1017.28 1017.21 1017.22 1017.20 1017.18 1017.19 1017.18 1017.22 1017.23
1005.66 1005.15 1004.01 1001.78 1001.94 1001.93 1001.63 1002.50 1002.58 1003.46 1003.71 1003.89 1004.75 1005.25 1006.08 1007.74 1008.98 1010.02 1011.33 1011.80 1012.34 1013.04 1013.50 1014.62 1015.16 1015.38 1015.46 1015.66 1015.73 1015.91 1016.12 1016.42 1016.65 1016.77 1016.82 1016.96 1017.14 1017.28 1017.39 1017.37 1017.43 1017.36 1017.41 1017.37 1017.28 1017.25 1017.27 1017.32 1017.36
1004.72 1003.84 1002.42 999.88 999.92 1000.64 1001.18 1001.82 1002.59 1002.94 1003.68 1004.25 1004.95 1006.05 1006.98 1007.72 1008.73 1009.84 1011.09 1012.07 1012.75 1013.02 1013.54 1015.02 1015.34 1015.52 1015.70 1015.88 1015.99 1016.22 1016.38 1016.69 1016.89 1017.02 1017.07 1017.27 1017.40 1017.55 1017.50 1017.60 1017.52 1017.51 1017.52 1017.44 1017.37 1017.34 1017.33 1017.37 1017.42
1003.61 1001.59 999.66 999.58 1000.23 1000.45 1001.12 1001.58 1001.93 1002.46 1003.33 1003.96 1005.12 1006.49 1007.59 1008.31 1008.97 1009.95 1011.13 1012.09 1012.55 1013.01 1013.72 1014.80 1015.46 1015.69 1015.95 1016.14 1016.28 1016.49 1016.77 1017.02 1017.16 1017.27 1017.39 1017.53 1017.60 1017.58 1017.63 1017.62 1017.56 1017.57 1017.54 1017.45 1017.49 1017.44 1017.40 1017.39 1017.50
1001.78 999.89 998.36 999.08 1000.23 1000.76 1001.12 1001.67 1001.64 1002.15 1003.38 1004.46 1005.46 1006.65 1007.79 1008.89 1009.43 1009.96 1011.12 1011.77 1012.30 1012.81 1013.16 1014.79 1015.63 1015.91 1016.16 1016.36 1016.59 1016.82 1017.03 1017.21 1017.33 1017.43 1017.55 1017.66 1017.64 1017.66 1017.70 1017.66 1017.63 1017.62 1017.53 1017.52 1017.56 1017.50 1017.39 1017.42 1017.50
1001.11 999.37 998.18 999.09 1000.11 1000.51 1001.22 1001.67 1001.43 1002.44 1003.60 1004.30 1005.52 1006.31 1008.10 1008.71 1009.24 1009.70 1010.28 1010.84 1011.52 1012.55 1013.04 1014.39 1015.04 1015.84 1016.28 1016.54 1016.81 1017.05 1017.28 1017.41 1017.49 1017.58 1017.71 1017.72 1017.66 1017.66 1017.59 1017.60 1017.65 1017.65 1017.60 1017.60 1017.57 1017.50 1017.45 1017.47 1017.48
999.71 999.09 997.90 998.10 998.70 1000.33 1001.27 1001.43 1002.15 1002.62 1003.22 1004.43 1004.88 1006.31 1007.58 1008.38 1009.12 1009.44 1009.85 1010.34 1011.82 1013.11 1013.46 1014.16 1014.73 1015.32 1015.80 1016.46 1016.96 1017.25 1017.40 1017.48 1017.57 1017.66 1017.67 1017.63 1017.50 1017.36 1017.38 1017.45 1017.60 1017.58 1017.56 1017.56 1017.53 1017.45 1017.44 1017.39 1017.35
999.99 999.56 997.85 998.15 998.26 999.83 1001.17 1001.36 1002.29 1002.81 1003.94 1004.60 1004.80 1005.86 1007.48 1008.72 1009.11 1009.42 1010.03 1010.71 1012.16 1012.63 1013.68 1014.12 1014.60 1015.31 1015.28 1015.81 1016.70 1017.23 1017.36 1017.47 1017.57 1017.57 1017.61 1017.46 1016.67 1016.78 1016.72 1017.14 1017.31 1017.46 1017.48 1017.43 1017.42 1017.45 1017.32 1017.24 1017.23
999.71 1000.69 998.34 997.85 998.72 999.08 1000.62 1001.03 1002.00 1002.89 1003.91 1004.54 1005.30 1005.89 1007.85 1008.93 1009.26 1009.49 1009.90 1010.90 1012.02 1012.84 1013.30 1013.40 1013.99 1014.31 1014.87 1014.85 1016.37 1016.46 1016.57 1016.70 1016.76 1016.68 1017.06 1016.82 1015.90 1016.24 1016.62 1016.71 1017.08 1017.28 1017.25 1017.22 1017.22 1017.08 1017.08 1017.18 1016.79
998.50 999.81 997.89 998.18 998.55 998.97 1000.20 1000.63 1001.72 1002.07 1003.23 1004.15 1005.13 1006.50 1007.91 1008.74 1009.29 1009.59 1009.91 1010.51 1011.44 1012.88 1013.11 1012.47 1013.36 1014.17 1014.32 1014.57 1015.40 1015.38 1015.46 1015.53 1015.83 1016.20 1016.48 1016.17 1015.99 1016.18 1015.96 1016.04 1016.35 1016.66 1016.98 1016.75 1016.82 1016.75 1016.39 1016.52 1016.12
998.29 998.73 998.08 998.04 998.86 998.58 999.56 1000.15 1001.27 1002.07 1001.98 1003.74 1005.05 1006.48 1007.69 1008.41 1008.87 1009.29 1009.72 1010.42 1011.23 1012.10 1012.11 1012.44 1013.24 1014.11 1014.27 1014.33 1014.67 1014.50 1014.54 1014.96 1015.17 1015.67 1016.59 1016.61 1016.47 1016.20 1016.34 1015.85 1016.55 1016.62 1016.10 1016.30 1016.40 1016.31 1016.35 1016.29 1016.46
998.03 997.61 997.75 998.00 998.51 998.48 998.96 999.95 1000.81 1001.85 1002.59 1003.72 1004.94 1006.37 1007.32 1007.90 1008.49 1008.94 1009.45 1010.17 1010.97 1011.73 1012.04 1012.61 1013.47 1014.27 1014.57 1014.66 1014.38 1014.27 1014.39 1014.86 1014.85 1015.19 1015.84 1016.24 1015.85 1015.86 1016.35 1016.14 1016.29 1016.54 1016.49 1016.36 1016.19 1016.37 1016.40 1016.29 1016.30
997.60 997.57 997.53 997.79 997.80 998.59 998.83 999.71 1001.07 1001.71 1002.84 1003.68 1004.91 1005.99 1006.80 1007.36 1007.95 1008.58 1009.15 1009.85 1010.76 1011.49 1011.92 1012.55 1013.30 1014.07 1014.53 1014.82 1014.92 1014.83 1014.78 1014.53 1014.95 1014.82 1015.10 1016.15 1016.29 1015.93 1015.85 1016.58 1016.54 1016.60 1015.96 1016.42 1016.40 1016.89 1016.82 1016.70 1016.50
997.58 997.73 997.51 997.76 997.77 998.37 998.93 999.44 1000.42 1001.22 1002.66 1003.55 1004.59 1005.50 1006.18 1006.81 1007.48 1008.12 1008.86 1009.61 1010.54 1011.25 1011.70 1012.29 1013.07 1013.53 1014.38 1014.74 1015.00 1015.17 1014.65 1014.80 1014.60 1014.88 1015.11 1015.71 1016.24 1016.62 1016.58 1016.46 1016.31 1015.91 1016.12 1016.45 1016.85 1017.01 1016.56 1016.22 1015.95
997.48 997.28 996.39 996.61 997.52 998.17 998.86 998.43 999.80 1000.89 1002.13 1002.91 1004.06 1004.94 1005.72 1006.37 1006.94 1007.79 1008.56 1009.31 1010.05 1010.65 1011.34 1012.15 1012.43 1012.90 1013.90 1014.33 1014.46 1014.46 1014.33 1014.81 1014.61 1014.55 1015.14 1015.48 1016.00 1016.59 1016.69 1016.22 1016.36 1015.92 1015.95 1016.26 1016.30 1016.61 1016.16 1015.64 1015.56
996.89 996.08 995.87 996.24 997.15 997.95 998.55 999.97 999.42 1000.54 1001.41 1002.14 1003.37 1004.24 1005.09 1005.90 1006.56 1007.25 1007.99 1008.88 1009.48 1010.33 1011.01 1011.70 1012.15 1012.39 1013.16 1013.92 1014.07 1014.28 1014.13 1014.52 1014.39 1014.88 1014.69 1015.16 1015.66 1015.81 1016.15 1015.52 1015.46 1015.79 1016.10 1016.71 1016.49 1016.51 1015.96 1016.04 1015.96
995.59 995.62 994.82 995.17 996.68 997.60 998.15 998.80 998.84 1000.10 1000.70 1001.41 1002.51 1003.47 1004.41 1005.13 1005.87 1006.63 1007.43 1008.28 1009.05 1009.78 1010.67 1011.50 1011.96 1012.43 1012.94 1013.44 1014.13 1014.18 1014.81 1014.58 1014.02 1014.10 1014.51 1014.85 1015.30 1015.33 1015.59 1015.47 1015.80 1016.24 1016.36 1016.22 1016.48 1016.54 1016.48 1016.57 1016.18
995.09 994.54 994.30 994.43 995.46 997.03 997.57 997.77 998.50 999.56 1000.17 1000.59 1001.47 1002.64 1003.47 1004.26 1005.05 1005.98 1006.94 1007.64 1008.49 1009.25 1010.23 1011.09 1011.78 1012.31 1012.85 1013.42 1013.80 1014.02 1013.72 1013.74 1013.94 1013.84 1014.36 1014.87 1015.11 1015.61 1015.89 1015.70 1015.76 1016.23 1016.09 1015.98 1016.43 1016.51 1016.32 1016.24 1015.86
994.98 994.08 993.82 994.09 994.88 996.20 996.71 996.91 997.40 998.60 999.49 999.98 1000.38 1001.38 1002.41 1003.26 1004.09 1005.19 1006.18 1006.95 1007.75 1008.66 1009.48 1010.51 1011.29 1011.89 1012.60 1012.92 1013.36 1012.71 1012.72 1012.61 1012.76 1013.13 1013.89 1014.28 1014.80 1014.96 1015.15 1015.40 1015.52 1015.72 1015.45 1016.08 1016.62 1016.90 1016.62 1015.93 1016.12
994.86 993.84 993.39 993.67 994.40 995.70 996.10 996.46 996.44 997.20 998.41 999.22 999.73 1000.13 1001.06 1001.94 1002.81 1003.98 1005.26 1006.20 1006.99 1007.81 1008.76 1009.66 1010.58 1011.28 1011.96 1012.31 1012.74 1012.93 1012.91 1012.88 1012.83 1012.98 1013.32 1013.90 1014.42 1014.50 1015.16 1015.44 1015.35 1015.69 1016.10 1015.74 1016.62 1016.77 1016.85 1016.16 1016.04
994.20 994.36 993.76 993.63 995.01 995.42 995.80 994.86 995.13 995.94 996.75 997.78 998.65 999.14 999.64 1000.60 1001.72 1002.67 1003.96 1005.17 1005.94 1006.86 1008.02 1008.92 1009.93 1010.75 1011.44 1012.01 1011.93 1012.04 1012.25 1012.28 1012.24 1012.56 1012.49 1013.16 1013.88 1014.11 1014.50 1014.92 1015.30 1015.81 1015.85 1015.95 1016.38 1016.57 1017.00 1016.95 1016.04
994.12 994.10 994.10 993.74 993.60 994.19 994.54 994.80 993.49 994.65 994.89 995.82 996.95 997.69 998.49 999.15 1000.33 1001.33 1002.34 1003.76 1004.96 1005.98 1006.96 1008.05 1009.14 1010.05 1010.65 1011.21 1011.72 1011.65 1012.09 1011.77 1011.94 1012.28 1012.86 1013.66 1014.05 1014.24 1014.48 1014.85 1015.34 1016.04 1016.13 1016.28 1016.58 1016.82 1017.11 1016.81 1016.81
994.55 994.17 993.90 993.95 993.66 993.49 993.53 994.34 992.82 994.89 993.49 994.06 994.88 996.05 997.15 998.00 998.95 1000.22 1001.33 1002.42 1003.70 1004.89 1005.90 1006.91 1008.11 1009.17 1010.03 1010.54 1011.18 1011.51 1011.37 1011.78 1011.72 1012.16 1012.74 1013.24 1013.50 1014.18 1014.46 1014.76 1015.48 1015.88 1016.12 1016.37 1016.60 1016.92 1017.13 1017.18 1017.16
994.48 993.97 993.29 993.01 992.60 992.46 993.23 992.71 994.39 991.75 992.36 993.16 993.53 994.11 995.14 996.67 997.80 998.92 1000.07 1001.07 1002.36 1003.57 1004.77 1005.88 1007.02 1008.15 1009.07 1009.82 1010.33 1011.09 1011.39 1011.68 1011.91 1012.02 1012.47 1012.46 1012.61 1013.15 1014.09 1014.84 1015.41 1015.74 1016.11 1016.04 1016.57 1017.09 1017.12 1017.14 1017.00
993.13 992.88 992.09 991.80 991.75 991.87 991.95 990.93 990.85 991.30 991.59 992.07 992.62 992.88 993.47 995.13 996.58 997.69 998.85 1000.04 1001.14 1002.49 1003.78 1004.95 1005.90 1007.10 1008.14 1008.92 1009.57 1010.31 1011.03 1011.35 1011.61 1011.83 1011.74 1012.24 1012.07 1012.52 1013.44 1014.43 1014.96 1015.41 1015.66 1016.09 1016.40 1016.75 1017.05 1016.93 1017.14
992.22 991.86 992.21 991.94 991.61 991.24 990.52 990.47 990.90 990.98 991.17 991.97 992.53 992.72 992.96 993.76 995.25 996.50 997.67 998.99 1000.17 1001.43 1002.58 1003.78 1005.01 1006.19 1007.15 1007.93 1008.78 1009.50 1010.20 1010.63 1010.73 1011.08 1011.50 1011.66 1011.96 1012.12 1013.12 1013.94 1014.58 1015.01 1015.24 1015.73 1016.46 1016.62 1016.72 1017.02 1017.01
991.76 991.88 991.72 990.96 990.23 989.60 989.58 989.33 989.38 990.04 991.21 991.68 991.92 992.18 992.28 992.98 993.90 995.24 996.47 997.81 999.17 1000.35 1001.71 1003.03 1004.22 1005.22 1006.28 1007.09 1007.75 1008.47 1009.16 1009.88 1010.32 1010.45 1010.85 1011.39 1011.67 1012.25 1012.56 1013.58 1014.11 1014.60 1014.98 1015.27 1016.10 1016.54 1016.55 1016.82 1017.01
991.53 990.56 990.43 990.96 990.63 989.57 989.06 988.34 988.65 989.30 990.38 991.02 991.41 991.60 991.50 992.06 992.77 994.12 995.30 996.63 998.07 999.33 1000.55 1001.88 1003.14 1004.29 1005.34 1006.12 1006.67 1007.42 1008.16 1008.96 1009.62 1009.85 1010.35 1011.01 1011.58 1012.09 1012.57 1013.27 1013.68 1014.25 1014.40 1015.56 1015.74 1015.87 1016.14 1016.50 1016.78
990.92 990.40 990.43 989.68 990.16 989.87 989.06 987.71 987.90 988.65 989.52 990.28 990.32 990.33 990.64 991.15 991.56 992.69 994.05 995.36 996.76 998.10 999.23 1000.34 1001.73 1002.95 1004.01 1004.89 1005.69 1006.39 1007.20 1007.92 1008.51 1009.11 1009.52 1010.38 1011.13 1011.64 1012.07 1012.71 1013.19 1013.51 1013.73 1012.27 1013.05 1014.47 1015.51 1016.05 1016.14
Wind_Speed
19 17 12 9 6 3 5 10 13 12 13 13 9 14 10 7 5 12 16 16 19 19 16 15 13 12 12 11 12 12 13 13 13 13 13 14 13 13 12 12 11 12 11 11 11 11 11 10 10
17 17 13 8 3 5 8 14 13 13 16 14 10 5 14 19 25 21 14 20 19 17 15 14 10 12 12 12 13 13 13 13 12 11 11 12 12 11 11 11 10 11 10 9 10 10 9 9 8
16 16 11 10 12 1 10 9 16 14 7 8 7 8 12 21 24 18 20 16 16 11 12 14 11 12 13 12 13 13 13 12 11 10 11 10 10 9 9 9 9 9 8 8 9 8 8 7 7
12 11 11 8 11 12 14 14 13 11 10 8 18 15 22 18 17 23 25 19 17 13 14 13 13 13 13 12 12 12 12 11 10 9 10 9 8 8 9 7 8 7 7 7 8 7 7 7 6
12 11 9 9 10 11 12 11 10 11 11 11 21 21 19 14 23 20 21 15 14 14 16 14 13 13 13 12 12 12 11 10 9 8 8 7 6 7 6 6 6 6 6 6 7 7 8 7 6
11 9 5 11 10 9 11 5 5 14 10 8 20 19 15 16 19 18 20 17 18 15 17 15 13 13 13 12 12 11 10 9 8 7 6 5 5 5 5 4 4 4 5 5 6 7 7 7 5
16 13 9 13 9 10 10 6 7 11 11 15 18 17 15 19 18 17 21 19 16 15 16 14 14 13 11 12 11 10 9 8 7 6 5 4 4 3 2 2 2 2 4 5 6 6 5 5 4
14 13 9 10 13 13 10 5 10 11 13 17 15 11 19 20 19 17 15 17 17 15 11 10 13 12 12 12 12 10 8 8 6 6 6 6 7 7 7 5 2 3 3 3 3 3 3 4 2
13 10 7 8 8 14 11 12 7 11 13 9 4 18 21 21 19 17 15 16 11 16 14 14 12 11 11 12 11 10 8 7 7 8 7 9 8 11 9 7 4 3 4 4 2 2 6 6 7
10 8 4 9 10 17 11 11 11 12 14 12 9 21 22 21 18 18 16 19 16 11 8 12 13 14 12 11 11 10 9 9 9 9 9 7 3 5 6 1 5 6 7 7 6 9 9 9 6
15 4 7 12 9 18 12 11 11 10 12 15 14 21 23 19 18 17 16 15 15 16 14 15 15 13 11 10 9 7 7 7 7 5 4 6 3 5 6 0 1 4 9 4 9 7 5 6 4
17 23 4 7 7 7 13 14 10 6 13 17 16 20 22 21 19 18 16 16 16 17 14 13 12 11 10 7 7 8 7 6 4 9 7 5 4 5 4 3 2 3 3 3 3 2 4 6 2
14 12 4 4 9 10 16 13 11 10 8 15 18 21 22 20 19 17 16 16 15 15 14 12 13 11 9 6 7 6 5 5 7 5 9 7 6 4 3 2 5 3 2 4 4 4 1 4 5
12 13 7 4 9 9 9 16 10 15 10 15 18 20 21 20 19 17 16 16 16 15 15 14 14 13 11 9 6 5 5 4 6 6 5 8 7 5 4 3 3 5 3 5 5 6 7 4 3
14 9 12 9 10 11 11 16 15 19 13 16 18 18 20 19 20 18 17 16 16 15 15 14 14 14 12 11 10 8 8 9 6 5 5 5 3 6 7 4 6 4 1 1 2 5 8 6 9
18 17 16 15 14 11 17 16 17 18 17 16 17 17 18 20 20 18 17 17 17 16 15 15 14 16 14 11 9 8 8 3 4 5 2 7 6 7 7 7 5 3 3 3 2 6 5 5 7
16 17 20 16 16 13 17 16 18 17 17 16 16 17 18 18 19 19 19 17 17 16 15 15 14 14 15 12 10 10 8 6 6 3 6 5 6 8 9 8 2 4 5 3 6 6 3 4 6
21 21 20 18 17 13 15 5 18 16 17 17 17 16 18 19 20 19 19 18 17 17 15 14 13 12 10 8 6 6 3 8 8 7 6 6 6 6 6 7 3 4 4 6 3 5 6 7 5
23 21 18 15 25 19 17 14 13 15 16 16 19 17 19 20 20 19 19 18 18 16 17 16 13 12 9 9 9 10 11 11 7 6 6 6 7 9 5 8 6 6 5 1 4 4 6 5 4
29 23 17 13 21 20 18 19 18 17 14 16 17 20 20 20 20 20 20 19 19 18 17 16 15 13 12 10 10 7 7 8 9 9 4 6 6 9 5 5 6 6 3 2 1 3 6 3 3
27 26 18 18 19 17 16 18 19 17 20 16 16 17 21 21 22 22 21 21 20 20 19 17 16 14 13 13 10 7 7 5 5 5 7 9 10 9 6 7 5 5 2 2 3 4 2 7 2
25 25 24 19 16 15 19 16 22 19 21 20 19 19 20 23 22 22 23 22 22 21 20 17 16 15 14 13 12 12 9 10 9 8 4 4 4 7 7 4 5 2 5 5 4 3 5 1 4
24 25 23 22 19 20 23 18 11 21 20 19 21 21 21 21 23 23 24 24 20 21 20 19 17 16 15 15 14 10 12 8 6 5 6 4 7 5 7 7 5 4 6 5 1 1 2 1 5
23 25 24 24 18 16 22 18 20 17 18 19 22 22 21 22 23 23 22 23 22 21 20 19 19 17 17 15 16 13 10 11 7 8 7 7 7 8 8 7 6 5 5 2 3 2 2 3 5
28 25 17 19 19 19 25 20 25 17 18 18 19 20 23 22 21 21 23 22 21 22 21 18 19 18 18 17 16 16 14 11 10 6 8 7 8 8 10 8 8 6 5 3 2 3 3 3 3
30 28 19 25 17 19 25 23 21 19 10 15 16 14 20 22 21 22 23 22 21 22 20 20 19 19 19 18 17 14 15 12 11 11 8 9 8 8 12 11 9 7 8 6 4 5 5 4 4
29 30 26 27 24 21 20 19 22 6 18 18 13 17 14 22 22 25 24 23 22 21 21 21 18 19 19 19 15 15 15 15 13 12 12 9 7 6 10 12 11 10 8 6 5 6 5 5 5
33 23 28 23 28 26 24 22 16 19 16 17 19 16 14 15 21 23 23 24 22 23 20 20 19 19 18 18 17 16 16 15 13 12 11 11 8 8 12 12 12 10 10 9 6 6 7 5 6
21 28 24 25 24 21 20 18 20 18 18 20 22 22 17 18 19 20 22 23 23 22 22 22 21 20 19 18 18 17 16 17 15 13 13 11 9 10 9 11 11 11 11 7 7 8 7 6 7
27 29 32 19 27 20 23 18 14 16 14 12 16 16 20 16 17 20 21 23 23 22 23 23 23 23 21 19 18 18 17 17 17 16 15 14 13 12 12 13 12 12 15 18 14 11 6 9 10
Wind_Direction
171 183 191 193 189 240 87 89 111 91 108 116 116 107 119 146 141 100 146 140 135 127 126 117 108 110 114 114 114 116 112 108 101 98 95 93 92 89 88 85 87 82 78 72 64 58 56 55 51
182 194 221 269 266 27 113 80 120 110 91 110 118 84 76 76 90 117 120 138 136 132 130 127 118 122 121 118 117 123 117 110 109 104 101 95 90 91 88 89 85 78 73 68 60 52 48 43 44
206 214 250 239 100 242 97 124 95 107 132 102 96 36 67 109 123 130 126 126 122 120 113 113 130 128 126 124 126 127 124 123 117 108 103 99 96 93 94 88 85 78 70 61 53 37 32 35 36
218 220 241 266 53 63 97 98 119 120 79 56 90 88 107 104 113 129 142 134 127 136 126 129 134 134 134 132 132 134 128 127 124 112 105 103 100 102 91 87 76 71 64 51 38 24 13 21 26
245 258 246 71 78 85 97 117 143 93 85 100 109 113 110 99 112 135 119 141 143 134 125 133 137 138 141 141 135 129 129 131 126 117 113 113 113 102 100 87 69 56 46 36 21 6 6 9 19
239 248 180 93 93 101 103 119 96 102 98 112 109 130 112 125 136 138 137 158 147 147 135 136 138 144 148 140 131 129 131 133 134 134 135 142 125 120 112 90 58 33 23 8 356 0 3 1 7
254 283 87 91 114 122 113 159 141 110 129 127 139 118 129 147 139 145 151 158 128 113 125 135 139 136 144 143 143 140 141 146 145 152 159 158 157 155 146 108 68 29 6 350 342 352 359 349 350
271 261 191 156 130 114 124 150 94 143 101 122 132 139 152 141 150 152 144 144 124 140 126 144 141 151 154 157 154 159 159 161 169 180 184 194 203 196 209 201 131 335 329 324 338 332 320 295 249
252 302 271 128 139 121 152 124 144 86 129 153 130 132 141 143 154 150 152 112 135 142 149 177 160 149 161 152 151 168 173 180 190 197 204 220 229 204 171 112 99 346 279 277 277 257 249 248 240
236 298 284 40 156 127 155 146 137 159 146 144 146 120 139 156 161 158 166 137 175 125 181 151 147 165 160 167 147 183 175 192 200 197 171 229 297 12 342 283 186 226 231 220 220 212 241 248 252
247 152 340 121 4 126 151 145 146 164 165 156 148 143 153 163 167 169 171 158 156 164 198 161 159 154 182 121 162 193 182 203 187 219 246 247 333 211 217 166 183 208 219 154 222 215 240 256 288
253 165 244 75 123 178 163 133 151 173 157 148 149 154 161 170 174 174 176 165 164 174 195 161 155 164 199 162 193 195 194 202 216 185 198 262 214 226 244 283 89 295 317 342 354 124 334 312 48
222 272 170 245 159 253 148 139 144 162 138 144 140 157 170 177 178 178 178 169 171 180 185 173 165 171 198 229 193 243 223 186 215 195 173 257 251 232 261 300 297 216 297 252 302 330 313 256 304
214 231 278 230 173 178 197 146 161 140 155 145 151 167 176 182 181 179 184 174 180 184 183 177 179 178 198 207 248 240 255 237 222 243 204 181 271 299 283 221 240 259 269 2 324 4 339 313 348
263 230 208 220 177 162 225 156 198 147 167 157 166 175 179 185 184 185 188 182 184 185 182 189 190 185 193 207 202 224 233 220 247 230 196 229 164 260 288 301 289 307 21 272 296 268 241 257 232
224 227 245 157 166 149 224 177 180 150 176 166 175 179 184 188 189 188 189 189 184 192 189 194 195 186 187 207 207 227 226 241 272 243 137 206 199 237 259 245 252 224 304 322 321 255 281 311 360
216 229 228 148 174 153 225 177 167 160 185 177 179 181 188 189 196 190 192 195 193 196 187 193 203 202 185 197 213 218 230 228 229 204 251 234 257 224 243 261 275 354 340 323 255 280 324 326 294
216 219 218 170 171 180 212 168 149 167 191 184 183 184 190 193 199 194 199 191 195 188 195 198 198 211 191 197 212 231 253 253 240 229 176 201 225 266 222 272 298 274 256 233 287 9 335 317 270
232 210 231 208 162 194 196 228 158 175 201 197 186 190 192 201 196 199 196 193 193 194 189 192 205 185 202 194 198 212 206 209 232 270 245 249 211 232 210 244 179 241 262 83 348 310 262 289 72
242 243 221 208 158 193 201 205 182 180 199 208 202 190 203 199 203 196 194 200 196 195 187 189 195 196 198 185 221 237 215 223 208 189 201 215 242 229 227 260 217 193 346 149 6 288 317 269 102
231 245 235 218 163 180 230 217 204 189 187 207 217 210 199 209 202 192 197 201 198 197 196 186 191 192 200 229 196 203 261 263 262 227 207 200 210 215 198 200 280 119 309 214 156 210 293 305 3
226 234 252 232 128 241 209 245 194 200 202 194 211 215 211 202 207 199 195 201 203 199 195 195 189 197 196 202 235 203 205 224 214 223 198 154 193 209 178 201 196 145 292 78 175 207 307 269 316
229 225 234 248 230 220 201 229 209 203 200 196 206 209 215 206 205 207 198 198 205 202 197 195 191 194 207 192 223 206 221 217 235 212 129 227 156 202 198 188 153 192 241 135 334 180 228 300 312
231 238 234 234 250 237 231 204 237 168 210 192 200 201 209 211 203 205 209 200 199 203 202 198 187 193 196 203 196 231 206 233 219 201 166 187 189 185 207 176 184 191 237 167 219 198 209 302 344
224 227 227 229 219 240 226 205 240 221 191 210 211 205 195 203 206 200 205 206 199 200 199 200 188 190 195 200 201 201 222 203 231 213 202 210 199 186 168 187 188 187 209 208 231 184 288 196 273
216 221 225 223 227 228 236 230 212 218 231 194 204 228 192 189 201 205 201 202 198 197 196 198 188 187 193 198 200 196 204 210 210 206 231 207 222 185 143 180 184 210 181 206 170 219 238 189 213
211 222 226 236 228 235 228 221 239 242 214 230 253 251 214 184 198 204 201 201 200 194 195 193 194 189 193 196 196 197 196 212 210 214 196 227 217 178 164 174 189 188 192 188 184 245 215 252 223
241 215 222 229 238 236 226 237 220 201 222 245 232 246 233 223 195 205 202 197 197 193 193 192 193 191 195 197 195 197 197 198 217 205 203 212 197 223 162 178 186 181 182 172 183 252 220 241 267
217 236 222 232 238 246 245 233 224 197 204 221 227 232 221 206 194 203 202 201 195 196 193 192 193 196 195 200 198 199 197 198 200 213 200 201 207 184 181 185 186 180 161 179 180 223 288 243 227
233 226 233 229 221 245 259 250 216 211 182 226 222 222 206 211 208 191 204 199 196 198 199 194 197 198 199 201 199 197 195 197 199 206 202 190 199 190 193 184 189 176 190 186 173 188 222 235 234